sat.trackr.live / text

‹ back to catalog

STARLINK-35541

NORAD 66235 · 2025-245B

PAYLOAD ACTIVE UNKNOWN

§ Identity

Operator
Country
US
Launch date
2025-10-29
Launch site
AFETR
Launch vehicle
Mass (kg)
RCS (m²)

Purposes: comms

External: N2YO · Heavens-Above · Gunter

§ Orbital elements

Epoch: 2026-05-24T19:26:18.163680Z

Period
94.11 min
Inclination
53.1593°
Eccentricity
0.0000992
Mean motion
15.30204808 rev/d
Perigee alt
474.5 km
Apogee alt
475.9 km
Semi-major
6,853.3 km
B*
6.5655e-4
RAAN
290.1314°
Arg perigee
83.5447°
Mean anomaly
276.5667°
Rev number
3,286

§ Raw data

STARLINK-355411 66235U 25245B   26144.80993245  .00019139  00000+0  65655-3 0  99992 66235  53.1593 290.1314 0000992  83.5447 276.5667 15.30204808 32860

JSON: /api/v1/satellites/66235 · /tle

For live sub-satellite position, see the globe view (requires WebGL).

§ Visibility from observer

Set your observer location to see the next 7 days of passes ≥ 10°. The values pass through the URL so the page stays shareable.

No JS? Fill the form by hand. The geolocation button needs JavaScript.